STARLINK-4042 (52661 NORAD) Tracking and Keplerian Element Data
This shows tracking and keplerian element data for the satellite.
Feedback or suggestion? Click here.
Element | Value |
Catalog | 52661 |
Name | STARLINK-4042 |
Epoch Orbit | 928 |
Epoch Day | 193.25001157 |
Epoch Year | 2022 |
RAAN | 33.8534 |
Inclination | 53.2174 |
Eccentricity | 0.0001265 |
Argument of Perigee | 69.3089 |
Mean Anonmoly | 324.5214 |
Mean Motion | 15.18355347 |
Decay Rate | -0.00725342 |
L1 | 1 52661U 22053F 22193.25001157 -.00725342 00000+0 -37449-1 0 9992 |
L2 | 2 52661 53.2174 33.8534 0001265 69.3089 324.5214 15.18355347 9281 |
Live tracking and technical data element details for STARLINK-4042 (NORAD 52661). STARLINK-4042 can be tracked NOW for your location showing map with azimuth and elevation plus other details from your city location.
Track the satellite on the map from your city or location and see movement details for azimuth, elevation, latitude, longitude, range, height, and movement on the map or in text.
IsCatalogInMostPopularTable: catalog: 52661, numindb: 4
Update: records affected: 1
GetName: 52661 STARLINK-4042
Hit Count: updated at: Sun, 14 Aug 2022 01:33:13 GMT